Location: Unspecified
(43.4680°N, 87.1740°E)
Time: 04:32:25
(UTC+00:00)

Cosmos 2034 Rocket - Pass Details

Date: 17 April 2021
Orbit: 959 x 999 km, 82.9° (Epoch: 17 May)

Event Time Altitude Azimuth Distance (km) Brightness Sun altitude
Rises 13:40:41 0° 183° (S) 3,636 6.8 -8.3°
Reaches altitude 10° 13:43:10 10° 182° (S) 2,698 6.1 -8.7°
Maximum altitude 13:49:20 82° 96° (E) 988 4.0 -9.8°
Drops below altitude 10° 13:55:38 10° 10° (N) 2,743 6.6 -10.8°
Sets 13:58:10 0° 9° (N) 3,701 7.3 -11.2°
